Вернуться в каталог

SMDC ONE 1.2

АктивенВоенныеVLEO
NORAD 38759·PAYLOAD·🇺🇸 United States

Запущен Sep 13, 2012 с Vandenberg Space Force Base

Loading…

Ближайшие Пролёты (ближайшие 24 часа)

TLE

СвежийSource: Space-Track

Эпоха: Sep 14, 2026, 14:02 UTC

1 38759U 12048B   26257.58472429  .00005299  00000-0  21960-3 0  9996
2 38759  64.6556 245.4761 0078110 145.6671 214.9540 15.22289492129755

Отслеживайте SMDC ONE 1.2 в реальном времени с AllMySat

Download on the App Store